This demonstration page uses our WeatherBlox Daily Observations layout. Learn more.

36.17497, -115.13722

Hourly Observations for June 24, 2015

Temp ( °F °C ) Dew Point ( °F °C ) Humidity (%) Winds ( mph kmh ) Pressure ( in mb ) Visibility ( mi km ) Precip ( " mm )
12:53 am 00:53 Clear 86 30 20 -6.7 9 9 WNW 6 9 29.77 1008 10 16.0934 0 0
1:53 am 01:53 Clear 84 28.9 18 -7.8 8 8 Calm 29.77 1008 10 16.0934 0 0
2:53 am 02:53 Clear 81 27.2 26 -3.3 13 13 WSW 5 7 29.78 1009 10 16.0934 0 0
3:53 am 03:53 Clear 76 24.4 28 -2.2 17 17 NNW 7 11 29.79 1009 10 16.0934 0 0
4:53 am 04:53 Clear 76 24.4 25 -3.9 15 15 NW 8 13 29.8 1009 10 16.0934 0 0
5:53 am 05:53 Sunny 76 24.4 26 -3.3 16 16 NW 6 9 29.83 1010 10 16.0934 0 0
6:53 am 06:53 Sunny 80 26.7 24 -4.4 13 13 NNW 5 7 29.84 1011 10 16.0934 0 0
7:53 am 07:53 Sunny 85 29.4 28 -2.2 13 13 NNW 5 7 29.86 1011 10 16.0934 0 0
8:53 am 08:53 Sunny 91 32.8 20 -6.7 7 7 Calm 29.87 1011 10 16.0934 0 0
9:53 am 09:53 Sunny 94 34.4 22 -5.6 7 7 E 5 7 29.86 1011 10 16.0934 0 0
10:53 am 10:53 Sunny 96 35.6 24 -4.4 7 7 S 7 11 29.86 1011 10 16.0934 0 0
11:53 am 11:53 Sunny 99 37.2 26 -3.3 7 7 Calm 29.86 1011 10 16.0934 0 0
12:53 pm 12:53 Sunny 103 39.4 27 -2.8 7 7 SSE 9 15 29.83 1010 10 16.0934 0 0
1:53 pm 13:53 Sunny 105 40.6 28 -2.2 7 7 SE 8 13 29.8 1009 10 16.0934 0 0
2:53 pm 14:53 Sunny 107 41.7 28 -2.2 6 6 Calm 29.78 1008 10 16.0934 0 0
3:53 pm 15:53 Sunny 109 42.8 24 -4.4 5 5 SW 16 26 29.75 1007 10 16.0934 0 0
4:53 pm 16:53 Sunny 107 41.7 24 -4.4 5 5 S 10 17 29.73 1007 10 16.0934 0 0
5:53 pm 17:53 Sunny 107 41.7 25 -3.9 5 5 SW 13 20 29.72 1007 10 16.0934 0 0
6:53 pm 18:53 Sunny 105 40.6 24 -4.4 6 6 W 13 20 29.73 1007 10 16.0934 0 0
7:53 pm 19:53 Sunny 103 39.4 24 -4.4 6 6 W 10 17 29.73 1007 10 16.0934 0 0
8:53 pm 20:53 Clear 100 37.8 24 -4.4 7 7 WSW 8 13 29.75 1008 10 16.0934 0 0
9:53 pm 21:53 Clear 97 36.1 25 -3.9 7 7 W 7 11 29.77 1008 10 16.0934 0 0
10:53 pm 22:53 Clear 92 33.3 26 -3.3 9 9 Calm 29.79 1009 10 16.0934 0 0
11:53 pm 23:53 Clear 93 33.9 26 -3.3 9 9 Calm 29.8 1009 10 16.0934 0 0

Powered by AerisWeather